{"data":{"norad_id":54690,"epoch":"2026-05-25T04:06:03.695904Z","epoch_age_seconds":63755,"freshness":"FRESH","line1":"1 54690U 22167J   26145.17087611  .00009901  00000+0  30381-3 0  9997","line2":"2 54690  97.6816 312.0868 0005734 174.8989 185.2312 15.33950758191825","mean_motion":15.33950758,"eccentricity":0.0005734,"inclination_deg":97.6816,"raan_deg":312.0868,"arg_perigee_deg":174.8989,"mean_anomaly_deg":185.2312,"bstar":0.00030381,"rev_number":19182,"period_min":93.875242897465,"perigee_km":460.11550435812,"apogee_km":467.96211157469,"semimajor_km":6842.1758079664,"source":"CELESTRAK","updated_at":"2026-05-25T13:37:58.709505Z"}}